GFSGL_sfc_wetblb_159.txt.gz
Wetbulb
36.86 37.26 35.61 35.25 35.52 35.49 34.77 34.62 34.87 35.60 35.64 35.80 37.13 38.14 38.38 38.40 39.20 40.19 39.38 39.88 39.81 40.62 41.52 41.34 41.49 42.59 42.40 44.06 46.26 47.94 49.11 51.38 50.29 52.57 55.38 56.49 56.44 56.60 56.81 55.22 54.92 55.79 55.91
35.17 34.76 33.42 33.40 33.56 33.00 32.59 32.48 33.16 33.01 33.97 34.27 34.78 35.07 35.22 35.31 36.86 35.54 35.35 36.06 36.09 36.72 37.68 37.91 38.06 39.61 39.67 41.99 41.73 39.56 40.83 42.49 42.82 42.02 46.32 49.78 53.81 55.89 56.63 56.24 55.80 54.10 54.89
32.87 32.17 31.36 30.84 30.80 30.43 30.18 30.71 30.96 31.17 31.46 31.81 32.42 32.22 32.56 33.60 32.67 32.88 33.42 33.89 34.49 34.94 35.61 35.66 36.41 37.27 37.58 37.27 37.17 38.57 39.42 39.80 39.08 38.63 39.19 44.02 47.29 50.53 52.66 54.89 54.62 55.18 53.80
30.48 29.43 28.31 28.03 28.20 28.08 28.43 28.61 28.72 29.13 28.88 29.67 30.25 30.37 30.43 31.33 30.65 30.87 31.07 31.47 32.45 33.52 35.20 35.88 35.52 35.25 34.36 34.87 35.60 35.17 35.74 35.54 36.01 35.99 36.25 37.65 40.38 43.27 44.00 43.82 47.34 50.87 49.92
28.20 27.34 26.12 26.78 27.30 26.92 26.85 27.00 27.36 27.36 27.73 28.34 27.97 28.42 29.17 29.36 29.53 29.91 30.33 30.69 31.30 31.66 32.76 32.63 33.35 32.03 32.88 33.65 33.22 32.79 33.16 32.68 32.42 32.48 32.81 34.35 35.47 36.55 37.93 41.91 43.04 45.79 47.80
26.40 25.21 25.37 25.29 25.45 25.21 25.33 25.29 25.66 25.71 26.45 26.89 26.45 26.57 26.76 28.04 29.87 30.18 29.35 29.30 29.13 28.88 28.55 29.50 29.87 30.56 30.37 30.67 31.42 31.57 31.40 30.15 30.44 31.58 32.34 32.03 32.99 34.61 36.49 36.95 37.32 37.51 36.76
25.00 23.78 23.25 23.60 23.09 23.23 23.81 24.02 23.72 24.46 25.26 25.27 25.43 25.75 25.91 26.49 28.53 28.88 28.49 27.72 27.60 27.55 27.43 27.62 27.74 28.32 28.75 28.53 28.81 29.49 29.58 30.80 31.37 30.43 29.91 31.36 32.22 34.33 34.69 33.31 32.87 32.35 33.18
22.81 21.94 21.91 21.78 21.34 22.01 22.02 21.93 22.37 23.35 23.40 23.60 24.12 24.72 24.95 25.07 26.93 27.49 27.42 26.26 26.13 25.77 26.18 26.00 25.58 25.70 26.58 25.95 26.12 26.14 27.17 28.82 30.36 30.81 30.70 31.24 32.78 34.54 33.73 32.66 32.21 32.78 34.04
21.18 20.68 20.69 20.53 19.97 20.48 20.06 20.36 21.57 22.38 22.49 22.66 23.53 23.20 22.54 22.81 25.23 26.37 25.86 24.52 24.09 23.81 24.53 24.63 24.53 24.33 25.04 26.48 24.43 23.24 23.72 25.19 28.31 29.24 30.48 33.23 35.02 35.36 35.36 33.80 32.04 31.00 29.58
19.80 19.42 19.50 19.28 18.98 19.20 19.31 19.86 20.70 21.58 21.34 22.16 21.89 22.47 21.93 21.39 23.30 25.24 25.02 23.35 21.91 22.00 22.53 22.83 23.76 23.35 24.47 25.45 22.76 21.29 19.21 21.17 22.19 22.41 25.14 27.70 31.24 33.41 35.21 34.77 33.52 30.80 30.84
17.86 17.86 17.38 17.55 17.66 18.49 18.30 19.11 19.46 19.67 20.13 20.46 20.48 21.47 21.01 21.20 20.55 23.86 24.25 21.84 21.29 20.22 19.87 20.09 21.17 22.41 23.21 23.93 23.97 20.02 20.81 21.63 19.38 19.36 19.79 21.88 24.14 25.68 26.54 29.49 31.97 33.57 32.18
15.66 15.38 15.06 15.26 16.77 17.46 16.52 17.62 18.25 18.39 19.12 19.48 19.03 19.32 19.84 20.38 20.59 21.92 22.40 22.38 22.23 18.03 17.50 19.08 19.01 20.56 21.25 21.47 20.21 21.55 21.49 18.87 16.12 14.81 15.15 16.03 16.82 17.86 20.43 22.77 24.72 28.78 34.65
12.14 11.37 13.14 13.84 14.87 15.27 15.51 15.50 16.84 17.20 16.81 16.52 16.23 15.63 15.99 18.03 17.82 20.58 20.36 20.67 20.00 17.43 17.17 18.14 17.76 18.32 18.21 16.97 17.33 18.21 15.60 13.88 12.48 11.00 11.88 12.69 15.28 17.41 19.00 20.03 21.91 23.43 26.15
9.81 11.42 12.43 12.85 12.84 13.78 15.45 15.31 15.13 14.17 14.15 14.33 13.72 12.90 13.89 14.89 15.09 17.70 17.52 17.31 17.75 15.53 15.63 12.76 14.20 14.46 14.53 14.07 11.96 13.29 12.78 11.76 10.27 10.19 9.66 11.63 14.01 14.29 14.57 16.79 16.10 17.77 19.40
10.08 10.55 11.31 12.37 11.37 12.15 12.79 12.48 12.81 13.86 13.69 12.10 12.11 12.22 11.55 10.62 13.27 17.88 16.56 15.32 14.60 14.29 9.98 7.80 6.92 7.05 6.20 6.66 6.74 7.16 8.40 8.02 6.44 6.91 6.58 8.02 9.16 10.84 11.46 13.90 14.13 15.28 16.25
9.58 10.15 8.43 10.41 10.34 10.57 10.42 11.00 12.74 12.01 12.75 12.98 13.41 12.71 12.76 14.03 15.93 16.74 16.15 16.12 15.23 13.90 4.10 2.03 2.04 2.75 2.12 2.40 2.27 2.21 3.84 3.83 3.73 3.28 4.43 5.08 5.51 7.15 7.82 9.42 12.33 12.35 12.95
7.13 7.58 7.93 7.96 8.03 7.28 7.46 7.05 5.82 9.19 11.08 10.25 11.05 11.34 11.74 12.29 13.97 14.86 14.23 13.62 10.27 8.16 -0.32 -0.67 -0.95 -0.61 -0.82 -0.18 0.06 0.00 -0.78 1.49 1.90 1.47 1.05 2.43 3.46 4.19 5.18 5.54 8.55 10.16 10.49
3.08 1.77 5.63 5.09 4.91 4.86 4.72 4.48 3.98 2.81 1.75 3.55 7.24 8.56 8.95 10.08 12.12 12.57 11.39 5.90 -0.67 0.13 -1.59 -3.06 -3.48 -3.06 -2.76 -3.17 -2.89 -2.50 -2.21 -1.41 -1.02 -1.31 -0.93 -0.31 0.55 1.03 1.96 2.73 5.75 7.26 8.48
4.00 3.86 3.26 3.07 2.81 1.17 2.28 2.65 2.27 1.88 1.45 1.26 2.28 4.08 3.67 6.40 9.64 8.23 6.42 -1.99 -4.13 -4.13 -3.63 -4.27 -3.93 -4.23 -4.56 -4.64 -4.66 -4.07 -4.02 -3.87 -3.72 -3.42 -3.04 -2.09 -1.43 -0.58 -0.58 1.27 4.70 6.67 7.43
-0.41 -0.78 -1.05 0.73 0.55 0.28 0.48 -0.17 0.18 -0.05 -0.87 -0.72 -0.98 -1.04 -1.40 0.76 -0.49 -3.03 -2.65 -3.49 -4.57 -4.86 -4.88 -5.76 -5.57 -5.53 -6.14 -6.33 -6.22 -6.06 -5.93 -5.88 -5.66 -5.11 -4.60 -3.39 -2.39 -1.84 -2.20 -0.12 4.35 5.16 5.64
0.51 -1.00 -4.11 -1.65 -1.62 -2.10 -2.10 -2.28 -2.22 -2.86 -3.29 -3.47 -3.14 -1.15 5.62 0.37 -4.74 -5.08 -5.14 -5.06 -5.31 -5.79 -6.30 -6.65 -6.94 -7.17 -6.96 -7.13 -7.85 -8.03 -8.18 -7.51 -7.19 -6.33 -5.45 -4.83 -4.53 -4.89 -2.08 -0.00 5.37 5.43 5.56
-1.05 -1.69 -2.58 -2.86 -2.56 -2.95 -2.89 -3.45 -3.50 -4.38 -4.69 -5.05 -4.35 -3.07 2.55 -5.11 -5.14 -5.61 -5.75 -5.67 -5.42 -5.73 -6.14 -6.97 -7.88 -7.96 -7.93 -8.83 -9.25 -9.57 -9.66 -9.47 -8.65 -7.33 -6.98 -6.87 -6.34 -4.91 -2.70 1.77 4.47 4.85 4.89
-2.92 -3.23 -3.34 -3.62 -3.88 -6.10 -6.08 -4.26 -4.94 -5.10 -5.21 -5.46 -5.65 -5.89 -5.89 -6.24 -6.60 -6.91 -6.89 -6.54 -6.91 -7.24 -6.92 -8.02 -9.06 -9.87 -9.08 -9.03 -8.50 -9.21 -10.46 -10.02 -8.53 -7.66 -8.79 -8.65 -7.74 -5.86 -1.60 3.09 4.71 4.22 4.20
-3.93 -4.36 -4.33 -4.20 -4.67 -5.26 -5.35 -5.23 -5.11 -7.71 -7.71 -7.23 -6.79 -6.80 -7.05 -7.14 -7.54 -7.76 -7.89 -7.51 -7.64 -8.36 -8.75 -9.50 -10.20 -11.08 -10.94 -10.77 -9.94 -9.64 -8.69 -8.31 -8.13 -7.74 -8.27 -8.42 -6.39 -2.06 2.81 3.54 4.51 4.49 4.51
-4.58 -5.23 -5.48 -5.52 -5.87 -6.07 -6.39 -6.60 -6.36 -6.73 -6.98 -7.06 -7.39 -7.20 -7.09 -7.32 -7.97 -8.20 -8.00 -8.39 -9.46 -10.42 -11.09 -11.16 -10.73 -11.19 -11.80 -12.44 -11.85 -11.37 -10.79 -8.42 -9.43 -6.97 -4.56 -1.87 1.16 2.23 3.39 4.69 4.18 4.42 4.70
-4.94 -6.05 -6.54 -6.35 -7.24 -7.55 -7.68 -7.65 -7.64 -7.56 -8.52 -8.13 -7.97 -8.09 -8.34 -8.83 -8.94 -9.09 -9.25 -10.22 -11.21 -11.73 -12.27 -11.80 -12.02 -12.72 -12.35 -11.38 -10.84 -8.44 -6.48 -1.50 -1.21 1.14 3.03 2.89 2.84 5.21 5.24 3.87 3.81 4.08 4.35

GFSGL_sfc_wetblb_162.txt.gz
Wetbulb
33.65 32.40 31.95 31.84 31.97 31.94 31.29 31.39 31.83 32.65 33.02 33.47 34.22 34.50 34.86 34.26 34.27 34.22 34.94 34.94 35.30 35.80 36.35 36.30 36.06 37.30 37.41 37.16 36.58 37.18 37.97 38.20 34.59 35.56 37.92 39.78 40.61 42.18 43.98 46.29 49.44 53.16 54.90
31.76 30.86 30.61 30.65 30.39 29.46 29.23 29.80 30.56 30.17 31.16 31.64 32.36 32.52 32.70 31.86 32.52 32.33 32.17 32.75 32.98 33.60 34.56 35.00 34.53 35.52 33.31 33.92 34.74 34.05 33.62 35.14 33.78 31.86 34.92 35.43 36.73 38.71 39.97 41.33 43.81 45.76 48.44
29.91 29.00 28.38 28.03 27.61 27.32 27.60 28.21 28.81 28.93 29.69 30.23 30.41 30.18 30.29 30.29 30.64 31.33 31.28 31.89 32.51 32.55 32.57 31.90 31.78 31.22 30.67 30.51 30.85 31.23 32.10 32.28 32.06 30.92 30.47 33.92 35.19 36.53 36.41 38.13 39.00 40.78 42.78
27.96 27.17 26.21 26.28 26.58 26.68 27.09 27.13 27.29 28.05 28.15 28.18 28.51 28.91 29.18 29.72 29.94 29.47 29.31 30.85 30.91 31.06 31.43 30.87 29.81 29.48 27.78 28.55 29.09 28.48 28.86 27.97 28.02 27.84 28.02 29.23 31.11 33.29 34.55 33.14 33.53 36.50 37.30
26.19 25.29 24.78 25.74 25.86 25.77 25.75 25.97 26.14 26.57 26.94 27.05 27.05 27.59 28.61 28.75 29.50 28.34 28.02 28.71 28.36 28.14 28.67 28.48 29.17 28.30 29.19 28.44 27.27 26.48 26.75 26.01 25.83 25.68 25.17 25.79 26.28 27.44 28.09 31.19 30.66 32.48 34.37
24.68 23.61 24.41 24.43 24.42 24.66 24.56 24.75 25.02 25.21 25.86 25.79 25.47 25.90 25.91 27.49 29.25 29.48 27.70 26.79 26.57 25.70 25.15 25.57 26.31 26.69 26.54 26.91 27.97 28.44 27.55 25.10 25.08 24.78 25.69 25.20 25.96 26.75 28.12 28.18 29.05 28.65 26.65
23.44 23.17 23.25 23.48 22.79 22.92 23.22 23.01 22.91 22.75 23.73 23.63 24.25 24.20 24.05 24.82 28.20 28.56 26.95 25.69 24.80 24.31 24.16 23.66 23.80 24.76 24.27 24.62 26.22 26.02 25.91 26.98 27.42 25.98 22.81 22.89 23.07 25.56 26.83 27.06 28.34 28.32 28.38
22.41 21.70 22.15 22.07 21.62 21.90 21.79 21.70 22.04 22.45 21.90 21.79 22.82 23.00 22.78 23.63 26.79 27.54 25.38 24.13 23.38 23.27 22.86 22.65 22.34 22.61 22.86 23.78 23.26 22.27 22.30 22.56 23.90 24.33 23.08 23.21 24.76 26.28 26.87 28.02 29.39 31.00 31.56
21.19 21.09 20.95 21.15 20.59 20.29 19.88 19.93 20.54 21.29 21.13 21.39 22.13 21.63 20.79 21.13 25.20 26.33 23.46 22.20 21.81 21.40 21.58 21.91 21.78 20.80 23.47 24.94 21.59 20.11 19.00 20.59 23.92 23.89 24.08 24.63 25.39 26.07 25.72 22.27 19.95 19.80 19.50
21.21 20.68 20.46 20.11 19.84 18.84 19.01 19.38 20.32 20.78 20.87 21.48 21.49 21.43 20.78 20.14 23.37 24.98 23.51 20.70 19.79 19.18 19.82 20.17 21.90 20.82 22.78 23.56 20.08 17.27 15.92 18.36 17.55 16.59 17.03 18.72 20.70 20.26 22.22 20.23 18.65 15.30 16.50
20.01 19.32 18.51 18.38 18.23 18.34 17.84 18.18 18.49 18.37 19.11 18.07 19.17 19.76 19.46 19.77 19.80 23.51 23.45 20.14 19.39 16.78 16.71 17.36 18.21 20.72 21.45 21.59 20.99 16.45 17.78 18.18 14.22 12.51 12.36 13.83 15.04 15.75 16.54 17.66 18.56 17.61 15.71
18.04 17.32 16.43 16.16 18.01 17.31 12.13 15.81 15.81 15.14 14.32 14.00 13.56 15.50 16.94 18.65 19.58 21.28 21.66 21.77 20.98 15.27 14.97 15.88 16.11 19.03 19.20 18.70 16.52 18.33 18.10 14.60 9.70 7.43 7.52 8.26 9.46 11.00 12.96 14.82 16.53 17.14 18.08
15.38 14.29 13.97 15.36 15.67 15.66 12.04 13.62 12.51 11.91 11.35 13.02 14.03 11.69 12.73 15.94 16.01 19.06 19.01 19.47 18.70 16.16 15.79 16.43 15.52 16.48 15.75 13.79 14.17 14.65 11.14 8.70 6.26 3.48 3.79 5.36 7.74 10.36 11.82 11.86 13.19 13.33 14.19
11.71 12.34 12.94 12.64 13.05 13.07 15.28 15.01 11.64 8.96 8.88 11.49 9.61 7.20 8.69 11.51 12.71 15.09 16.20 14.93 16.82 14.78 13.51 8.96 11.49 11.44 10.93 10.42 7.82 8.40 7.32 6.82 5.07 3.48 2.56 3.88 6.16 5.68 5.78 8.35 7.05 8.04 8.13
11.44 11.98 12.77 11.21 10.91 11.51 12.34 10.99 12.76 12.12 12.02 4.09 1.26 4.46 0.76 -0.11 10.57 17.10 16.59 14.25 13.19 14.28 2.09 -1.61 0.38 2.73 2.04 2.30 2.18 2.73 3.30 2.61 1.43 1.56 0.17 0.19 0.81 2.15 2.65 4.88 4.82 5.10 3.95
10.03 10.70 9.81 9.75 9.09 9.45 9.04 8.72 13.63 13.01 13.26 13.68 13.76 11.18 8.77 13.60 15.49 16.75 17.01 16.53 15.29 13.83 -9.64 -12.08 -4.72 -1.65 -1.90 -1.39 -2.19 -2.10 -0.57 -1.26 -0.81 -1.06 -1.52 -1.70 -1.84 -1.29 -0.57 0.78 2.40 2.09 1.31
9.29 9.00 6.36 8.71 8.00 6.84 7.05 6.17 2.14 7.19 11.74 11.51 11.54 11.76 12.24 12.33 13.82 15.22 14.80 13.80 9.37 4.15 -15.37 -14.83 -10.00 -5.27 -4.85 -3.39 -3.82 -4.25 -4.87 -2.81 -2.06 -3.01 -3.30 -3.69 -3.12 -2.90 -2.83 -2.34 -1.06 0.15 -0.33
4.14 6.34 6.54 5.55 5.15 4.45 5.12 4.54 3.25 -0.09 -2.85 -1.46 6.19 8.60 9.57 10.01 11.84 13.11 11.58 2.14 -13.65 -10.08 -17.60 -18.07 -17.79 -13.68 -7.20 -6.77 -6.67 -6.80 -6.41 -5.57 -5.50 -4.96 -5.66 -5.64 -5.53 -5.32 -4.96 -4.68 -3.63 -3.04 -2.09
4.38 3.38 4.45 4.09 3.34 2.63 2.87 2.56 1.55 0.46 -0.24 -3.40 -4.29 0.94 1.96 6.25 8.87 8.26 6.13 -14.12 -18.46 -19.72 -18.97 -18.98 -18.21 -17.02 -14.18 -11.26 -9.25 -9.35 -9.80 -8.93 -7.93 -8.39 -8.45 -7.80 -6.87 -6.52 -6.59 -6.01 -5.16 -3.54 -2.28
1.86 2.02 2.62 2.08 0.10 0.81 0.72 -0.92 -0.82 -2.20 -4.62 -6.06 -7.40 -8.19 -9.81 -9.32 -12.23 -17.02 -17.36 -19.20 -20.81 -20.77 -20.14 -20.55 -17.84 -18.90 -20.12 -18.11 -12.30 -12.49 -11.64 -11.32 -10.95 -10.24 -9.94 -9.05 -7.78 -7.41 -8.11 -7.85 -6.32 -5.04 -2.77
0.92 -2.47 -0.00 -0.93 -1.77 -2.69 -3.97 -5.27 -6.25 -8.96 -10.43 -11.49 -10.51 -9.06 5.10 -6.61 -18.36 -20.39 -16.32 -18.46 -20.49 -17.72 -17.42 -19.96 -17.60 -16.56 -19.63 -17.79 -17.99 -17.04 -14.01 -12.87 -12.15 -11.57 -11.06 -10.12 -9.34 -10.31 -8.82 -7.75 -6.97 -4.57 -0.09
-0.03 -1.62 -3.13 -3.26 -3.63 -5.97 -8.19 -8.79 -10.10 -11.33 -14.46 -15.34 -11.90 -13.57 3.35 -17.65 -19.50 -17.10 -17.85 -17.19 -15.64 -16.84 -17.45 -17.51 -15.72 -18.65 -12.57 -12.66 -12.98 -13.61 -14.02 -13.80 -13.03 -12.35 -11.72 -10.67 -10.78 -10.39 -9.78 -8.76 -6.86 -4.10 0.72
-2.92 -4.06 -5.39 -6.61 -6.77 -6.41 -10.93 -14.76 -15.44 -17.32 -16.10 -16.20 -18.46 -15.35 -19.30 -17.82 -17.93 -18.31 -16.51 -15.85 -16.91 -15.78 -16.64 -21.38 -18.01 -12.83 -12.53 -15.52 -14.01 -13.14 -13.81 -13.88 -12.74 -11.36 -11.78 -12.05 -11.52 -11.33 -10.26 -9.01 -5.34 -0.84 1.13
-4.99 -6.36 -8.34 -11.09 -12.25 -14.61 -16.48 -17.99 -17.46 -14.23 -17.33 -17.77 -18.13 -16.83 -15.62 -16.03 -16.66 -16.02 -15.73 -15.79 -16.29 -16.17 -17.93 -16.85 -14.60 -14.62 -13.85 -13.94 -13.22 -12.87 -12.82 -12.30 -11.54 -11.01 -10.90 -10.52 -12.15 -10.76 -8.46 -4.41 -0.39 1.74 1.94
-10.21 -11.74 -13.17 -15.19 -17.43 -17.90 -19.13 -20.73 -19.43 -18.65 -17.09 -16.39 -15.34 -16.22 -15.70 -16.30 -15.71 -15.84 -15.97 -16.04 -16.16 -16.18 -13.71 -14.06 -13.83 -14.67 -16.08 -16.53 -15.82 -14.76 -13.20 -10.16 -12.01 -10.96 -10.70 -9.71 -8.22 -5.39 -1.57 -0.73 1.42 1.71 1.82
-15.41 -17.40 -19.58 -20.13 -21.36 -22.04 -20.95 -18.57 -17.31 -17.20 -16.32 -15.55 -15.52 -15.78 -16.07 -15.38 -14.77 -15.17 -14.40 -16.74 -16.03 -13.99 -14.72 -13.44 -13.66 -15.65 -15.88 -14.77 -13.92 -11.23 -9.29 -3.98 -3.80 -1.55 0.58 0.45 -0.10 0.03 -0.19 0.00 1.03 1.91 1.53

GFSGL_sfc_wetblb_165.txt.gz
Wetbulb
31.10 30.73 30.43 30.08 29.90 29.95 29.64 29.88 30.36 30.91 31.48 32.12 32.64 32.25 32.26 32.36 33.32 33.76 33.64 34.40 34.69 34.87 35.52 34.21 33.32 33.91 33.20 33.31 34.82 33.84 33.54 32.98 30.05 30.52 32.96 33.89 33.69 34.34 35.58 36.94 37.62 38.08 39.28
29.94 29.26 29.09 28.87 28.44 27.66 27.62 28.02 29.11 29.20 30.33 30.67 31.39 30.87 30.92 31.42 31.86 31.92 32.21 33.00 32.76 32.43 32.79 32.26 30.98 31.46 29.93 30.91 31.77 31.04 30.83 30.43 28.64 26.36 28.62 29.47 30.38 31.93 32.77 32.04 34.60 36.23 36.33
28.44 27.50 26.98 26.60 26.26 26.02 26.31 26.95 27.63 28.04 28.12 29.22 30.03 29.78 29.88 30.16 29.82 30.58 31.65 31.71 31.07 30.64 30.29 29.03 28.62 28.28 28.45 28.54 28.51 27.48 28.35 28.44 28.30 26.73 25.84 28.45 28.60 29.44 28.87 29.72 30.70 31.41 33.53
26.97 26.00 25.35 25.17 25.21 25.22 25.94 26.13 26.66 27.32 27.13 27.90 28.73 29.30 29.43 29.39 28.93 29.21 29.76 29.32 29.34 29.30 29.35 29.22 27.14 27.00 25.92 25.91 26.10 26.19 26.27 26.20 26.39 25.41 25.45 25.85 26.21 27.03 26.11 24.61 24.56 27.52 27.75
25.22 24.42 24.05 24.75 24.52 24.76 24.88 25.14 25.62 25.70 26.32 26.67 26.44 27.62 28.24 28.87 28.53 26.64 27.60 27.33 26.39 26.05 26.11 26.42 26.40 25.68 26.60 26.94 26.01 25.06 24.87 24.23 23.79 23.39 23.15 22.07 21.47 21.35 21.38 23.56 23.44 24.90 26.97
23.97 23.43 23.58 24.32 24.40 24.33 24.27 24.47 24.60 24.69 24.84 25.07 24.82 24.66 25.53 27.86 29.01 28.46 26.67 24.67 24.61 24.17 23.31 23.79 24.36 23.69 24.70 26.09 26.73 26.43 25.49 22.90 21.97 21.24 20.38 19.29 20.06 20.72 22.17 22.08 22.14 21.78 20.29
23.51 23.54 23.54 23.53 23.13 23.35 23.43 23.44 23.38 22.46 23.38 23.25 23.63 23.54 23.39 25.62 28.11 26.98 26.18 24.10 23.37 22.48 22.19 22.05 23.05 22.40 23.36 24.02 24.40 24.55 23.41 24.37 24.73 21.74 18.23 18.78 18.98 20.49 21.32 20.08 19.86 18.70 18.30
22.50 22.73 23.25 22.82 22.18 22.52 22.74 22.44 22.33 22.20 21.58 21.91 22.24 22.72 22.58 25.09 27.33 25.69 24.91 23.15 22.49 21.65 21.55 21.23 21.16 20.18 22.68 23.52 21.37 20.24 19.71 21.14 21.62 20.53 19.31 19.25 20.26 21.48 20.47 20.06 18.38 17.06 17.13
21.77 21.97 22.37 21.89 21.40 21.24 21.08 20.74 21.70 21.72 21.67 21.92 21.67 21.28 20.63 22.05 26.24 25.27 22.35 21.47 20.92 19.64 20.89 20.58 20.06 19.75 23.02 23.87 19.47 16.62 17.44 18.92 20.59 20.24 19.77 20.47 21.01 20.91 20.51 16.60 11.87 11.40 9.82
21.65 22.05 22.14 21.85 21.34 20.75 20.61 20.47 20.92 21.76 21.56 21.96 20.77 20.89 20.29 19.68 24.79 24.87 21.59 20.52 18.86 17.77 19.06 19.06 20.12 20.57 22.08 22.12 16.89 15.42 14.57 15.54 13.42 12.28 12.82 14.52 15.85 15.90 17.65 15.88 13.40 9.40 9.38
22.15 21.04 20.52 20.53 20.35 19.98 19.73 20.05 19.92 20.46 20.13 19.21 19.44 18.91 19.00 19.15 21.02 22.93 23.45 19.58 18.38 15.90 16.27 16.01 16.50 20.19 20.40 19.84 18.06 16.06 15.25 14.39 10.52 8.06 7.83 9.15 10.42 10.81 11.91 12.59 13.06 11.75 9.11
19.31 18.46 18.63 19.06 19.66 18.93 18.63 18.80 19.06 18.81 17.68 16.32 15.26 15.01 16.80 17.12 19.99 20.79 21.24 20.77 20.03 14.05 14.53 15.32 14.50 18.13 17.63 16.75 14.91 16.81 14.91 10.99 6.35 3.57 2.95 3.98 5.09 5.95 7.66 9.13 10.98 11.46 11.91
17.32 16.64 16.54 17.71 18.16 17.90 17.25 17.30 16.61 17.09 15.75 15.15 14.10 11.94 13.11 14.95 15.08 18.33 18.65 18.39 18.03 15.21 15.82 14.65 14.04 14.17 13.32 11.50 12.48 12.86 8.59 5.43 3.21 0.10 0.64 2.26 4.17 5.70 6.61 6.24 7.23 7.54 8.05
15.12 14.63 15.08 15.17 14.80 16.43 16.62 16.18 14.74 12.97 12.70 12.82 11.40 9.45 9.96 11.70 12.43 14.65 16.36 15.33 16.59 14.05 10.18 6.76 9.45 9.56 9.19 8.07 5.46 5.46 5.13 3.87 1.88 1.00 0.41 1.43 2.93 1.96 1.20 3.28 1.12 2.09 1.20
14.07 13.64 13.98 13.60 13.89 13.77 14.08 13.97 13.31 13.69 12.58 9.40 8.19 8.60 5.42 6.33 11.86 16.87 16.51 15.42 12.57 13.50 -2.48 -3.92 -2.25 0.71 0.19 0.63 0.60 0.58 1.01 0.85 -0.91 -0.69 -2.18 -2.45 -1.74 -1.05 -1.03 0.73 -0.05 -0.81 -2.60
12.46 12.90 12.62 12.29 12.52 11.64 11.52 12.49 16.47 15.89 16.98 16.62 16.02 12.57 12.00 13.56 15.12 16.12 16.72 16.28 13.61 12.15 -11.63 -13.94 -7.29 -3.61 -3.76 -2.92 -3.43 -3.55 -2.75 -3.36 -2.79 -3.14 -4.17 -3.98 -4.71 -4.36 -4.07 -3.13 -1.88 -3.49 -4.28
11.74 11.39 11.32 10.83 10.18 9.65 10.13 9.46 8.10 11.06 14.04 14.40 13.27 12.57 12.71 12.38 13.35 14.71 14.41 12.81 9.33 1.67 -17.92 -17.06 -12.52 -8.64 -7.30 -4.99 -5.13 -5.56 -6.57 -4.95 -4.29 -5.63 -5.63 -6.26 -6.21 -6.74 -6.84 -6.72 -5.18 -4.77 -5.92
10.56 9.45 9.54 9.22 8.68 7.90 7.56 6.94 6.42 4.18 2.59 3.38 7.51 9.03 10.22 9.71 11.30 12.75 11.31 0.75 -15.03 -12.35 -20.31 -20.17 -19.84 -17.33 -13.19 -10.28 -8.85 -8.76 -8.60 -8.51 -8.46 -8.28 -8.55 -9.46 -9.97 -9.64 -9.57 -9.14 -7.71 -8.38 -7.96
6.59 6.74 6.65 6.05 5.99 5.97 5.42 4.31 3.61 2.76 1.44 -0.10 -0.73 1.70 1.27 6.09 8.17 8.60 5.39 -15.47 -18.98 -20.57 -21.27 -21.62 -20.76 -19.68 -17.64 -16.46 -14.81 -14.51 -14.21 -13.41 -11.98 -12.54 -12.88 -12.59 -11.82 -11.44 -11.27 -9.90 -9.38 -8.89 -8.24
5.87 5.52 4.72 4.00 1.94 2.30 3.03 2.15 1.42 0.93 -0.33 -1.64 -3.11 -5.03 -9.31 -9.68 -11.55 -15.75 -18.46 -20.51 -22.13 -21.71 -19.36 -21.37 -20.32 -23.30 -21.90 -20.62 -19.33 -19.98 -20.50 -22.38 -19.03 -20.08 -16.71 -14.04 -12.82 -12.17 -11.73 -11.77 -11.18 -11.07 -10.11
2.78 1.91 2.85 1.95 0.95 0.76 0.35 -0.15 -0.14 -1.69 -3.16 -6.14 -9.01 -7.42 4.07 -7.45 -13.50 -19.11 -19.79 -20.99 -20.15 -20.53 -21.52 -22.81 -21.44 -21.46 -20.93 -20.39 -23.03 -22.24 -22.70 -17.99 -16.28 -16.90 -16.86 -15.07 -13.74 -14.02 -12.43 -11.72 -11.64 -11.00 -9.78
1.23 -0.52 -0.72 -0.68 -0.61 -1.48 -2.57 -2.95 -4.34 -5.83 -7.66 -9.41 -11.06 -12.33 3.24 -14.92 -17.92 -18.32 -18.60 -18.63 -19.73 -20.92 -20.70 -21.52 -19.38 -19.57 -18.55 -18.66 -18.95 -21.40 -21.26 -17.21 -16.59 -16.67 -18.11 -15.47 -14.10 -13.59 -13.40 -12.88 -12.34 -11.49 -9.85
0.25 -1.35 -2.24 -3.07 -3.42 -3.92 -5.31 -8.59 -11.03 -11.80 -13.16 -14.33 -16.05 -15.75 -18.51 -18.74 -18.62 -19.72 -20.10 -19.40 -20.17 -18.83 -20.35 -23.90 -20.40 -17.40 -17.14 -18.93 -16.86 -16.40 -16.31 -15.96 -14.98 -15.50 -15.75 -15.25 -14.86 -14.43 -13.93 -13.22 -12.66 -11.83 -8.53
-3.98 -4.92 -6.19 -8.46 -9.83 -12.79 -13.69 -15.12 -16.27 -13.87 -16.31 -17.58 -18.58 -18.18 -17.36 -18.98 -21.60 -19.72 -19.40 -19.15 -19.54 -18.64 -20.24 -19.33 -18.18 -17.66 -15.40 -16.80 -18.68 -17.19 -15.85 -14.54 -14.21 -14.65 -17.14 -14.75 -13.16 -13.09 -13.35 -13.15 -11.66 -8.41 -3.89
-14.81 -14.45 -13.93 -13.19 -13.26 -12.97 -16.06 -17.06 -17.97 -21.19 -20.87 -20.80 -20.70 -23.00 -20.77 -20.05 -20.34 -20.45 -19.19 -18.72 -18.36 -17.84 -15.73 -15.79 -18.48 -17.20 -17.88 -18.47 -17.66 -17.33 -15.19 -10.92 -12.47 -12.34 -12.86 -13.55 -14.52 -14.98 -13.50 -11.54 -7.00 -2.68 -2.60
-14.92 -15.95 -16.70 -21.29 -23.36 -25.32 -23.96 -22.06 -21.30 -21.84 -20.85 -19.82 -19.29 -19.95 -20.49 -20.04 -18.92 -17.84 -16.21 -18.59 -18.49 -17.50 -16.79 -15.42 -16.00 -18.33 -18.33 -17.03 -17.13 -14.74 -12.69 -7.10 -6.97 -6.71 -7.37 -7.69 -7.04 -5.34 -3.42 -2.82 -3.32 -3.43 -1.84

GFSGL_sfc_wetblb_168.txt.gz
Wetbulb
30.52 29.98 29.59 29.07 29.10 29.21 29.02 29.17 29.46 30.34 30.99 31.38 31.32 31.30 31.29 31.37 32.19 32.24 32.98 33.84 33.34 33.03 32.75 32.48 31.68 32.25 31.12 32.01 32.64 31.96 30.33 29.65 28.05 28.06 30.80 30.70 29.93 29.94 30.64 31.06 31.90 32.11 32.77
29.42 28.88 28.42 27.94 27.57 26.96 26.90 27.53 28.68 28.58 29.60 30.03 30.14 30.21 30.31 30.40 30.99 31.43 31.32 31.83 31.19 31.11 30.69 29.74 29.22 30.20 29.64 30.16 29.17 27.79 28.18 28.50 26.54 24.83 26.35 27.23 27.62 28.63 27.55 27.12 28.43 30.18 29.47
28.01 27.21 26.60 26.06 25.57 25.46 25.72 26.60 27.23 27.34 27.91 28.98 29.36 29.00 28.71 29.12 29.28 30.33 30.92 30.39 30.00 29.78 29.40 27.43 28.49 27.04 25.80 26.70 26.79 25.27 25.92 26.90 26.16 25.56 24.70 26.91 25.68 25.31 23.81 24.79 25.07 26.04 28.16
26.57 25.63 25.12 24.88 24.77 24.63 25.07 25.51 26.00 26.44 26.76 27.75 28.28 28.77 28.37 28.10 28.31 28.82 28.96 28.50 27.88 28.33 27.53 26.96 25.48 24.65 24.79 25.06 25.21 24.95 25.01 24.84 24.88 24.01 23.94 22.26 22.42 22.90 22.10 20.28 20.44 23.12 22.59
25.32 24.37 24.20 24.90 24.15 24.14 24.72 25.18 25.42 25.64 25.55 26.54 26.45 26.80 27.77 27.39 27.36 26.44 26.68 26.20 25.02 24.21 25.41 24.55 23.95 24.66 26.46 26.75 24.54 24.07 23.02 22.76 22.58 21.23 19.92 19.31 18.83 18.90 18.27 20.08 19.13 19.57 20.09
24.59 23.91 23.52 24.04 24.09 24.30 24.31 24.60 24.92 24.82 24.86 25.38 25.35 25.59 25.74 27.43 29.44 28.51 26.14 24.73 24.37 23.79 22.75 23.65 22.53 22.65 24.43 25.93 25.88 25.60 24.26 21.94 20.39 19.03 18.22 17.09 17.44 18.17 18.82 18.20 17.21 15.65 13.46
24.15 23.70 23.73 23.88 23.81 24.01 24.05 23.76 23.71 23.29 23.93 23.66 23.68 24.26 24.62 25.51 28.16 27.57 26.00 24.14 22.91 22.17 22.17 22.87 21.59 22.29 23.43 22.75 23.34 23.02 22.57 24.29 23.26 19.04 16.28 16.26 15.80 17.90 17.96 16.30 16.17 14.79 13.49
23.57 23.22 23.51 23.52 22.88 23.14 23.03 22.81 22.48 23.05 22.52 22.77 22.79 23.47 24.42 25.59 26.62 26.07 24.74 23.15 21.75 21.25 21.18 20.89 20.11 20.49 23.15 21.79 19.96 19.07 19.44 20.32 19.33 18.82 16.69 16.80 18.21 18.87 17.60 16.80 14.41 12.61 12.58
22.90 22.66 22.68 22.47 21.58 21.79 21.35 21.69 22.05 22.44 22.46 21.75 22.80 22.32 22.88 24.52 25.75 24.13 23.02 21.92 20.37 20.23 20.45 19.57 19.95 20.00 22.72 22.43 17.43 17.29 16.96 17.68 18.36 17.89 17.49 18.45 18.77 18.33 18.12 12.85 6.68 5.47 4.32
22.93 22.69 22.59 22.24 21.52 21.15 21.28 21.19 22.53 23.28 22.30 22.30 21.48 21.68 21.59 23.16 25.29 23.69 21.98 21.21 18.78 18.65 19.09 18.62 20.64 20.49 21.30 20.84 15.93 15.77 13.13 13.40 12.03 9.59 10.58 12.62 13.52 13.24 14.76 12.20 10.12 3.59 4.06
22.90 21.96 21.28 21.28 20.81 20.98 20.80 20.74 21.99 21.83 21.78 20.25 20.11 19.99 19.90 20.44 22.71 23.90 22.22 20.47 18.93 16.44 16.81 15.92 15.83 19.44 19.07 18.56 17.08 15.78 13.54 11.46 8.25 6.03 5.63 6.90 8.12 8.42 9.08 9.52 9.96 8.28 4.58
20.63 19.76 19.08 19.09 20.21 19.87 19.05 19.32 21.19 20.86 19.90 19.12 18.03 17.59 17.61 18.67 21.29 21.70 21.63 20.89 19.55 15.66 14.78 14.85 14.66 17.05 16.33 15.49 14.45 14.97 12.41 8.47 4.10 0.23 0.10 2.67 3.68 4.39 5.78 6.55 7.62 8.05 8.31
17.90 16.92 16.97 19.28 19.85 19.90 18.24 18.96 18.62 19.37 18.12 16.67 15.94 15.10 14.73 15.63 17.00 20.03 19.54 18.80 18.98 15.38 15.32 13.62 14.03 13.93 12.59 10.16 11.84 10.94 7.23 4.26 1.36 -4.81 -0.89 0.84 2.40 3.82 4.67 3.87 4.90 5.13 5.12
16.50 17.30 17.87 17.96 17.58 18.21 19.12 18.99 18.24 17.57 16.70 16.21 14.47 13.74 13.50 13.22 14.06 15.74 16.41 16.29 17.48 13.72 9.97 8.20 10.62 9.68 9.44 7.33 4.53 4.39 3.86 2.62 0.60 -0.49 -0.71 -0.05 1.27 0.51 -0.41 1.44 -1.01 -0.18 -1.80
17.28 16.38 16.42 16.40 16.29 16.18 16.83 16.71 16.36 16.63 17.17 14.47 13.17 12.57 10.18 10.37 13.24 17.35 16.32 15.09 13.63 9.58 1.16 0.69 0.67 0.99 0.08 0.00 -0.15 -0.34 -0.03 -0.83 -2.01 -1.82 -3.36 -4.11 -2.99 -2.54 -2.68 -1.25 -2.42 -3.73 -6.15
14.72 14.51 14.26 14.26 14.54 14.42 14.01 14.76 18.27 17.54 18.67 17.62 16.83 13.86 13.15 15.24 16.91 17.34 17.85 17.40 15.21 10.35 -2.82 -4.27 -3.27 -3.00 -3.66 -3.31 -3.90 -4.22 -3.47 -4.43 -4.26 -4.75 -6.14 -5.88 -5.89 -6.29 -6.15 -5.59 -4.78 -7.06 -7.56
13.79 13.33 13.06 13.27 12.54 11.88 12.57 12.25 11.32 16.10 19.71 19.00 17.89 17.07 15.07 14.58 14.92 16.10 16.07 13.49 11.55 3.26 -5.80 -6.58 -6.30 -6.26 -6.52 -5.29 -5.72 -6.06 -7.48 -5.82 -5.80 -7.77 -7.79 -8.21 -8.02 -9.19 -10.13 -9.95 -8.69 -7.79 -9.44
12.37 12.86 11.96 11.59 11.40 11.31 11.14 11.06 10.11 9.28 9.63 9.75 13.12 12.14 13.96 12.34 12.57 14.59 13.23 5.25 -3.35 -5.20 -9.52 -12.62 -13.70 -13.22 -10.21 -10.15 -10.04 -10.10 -9.63 -9.94 -10.45 -10.19 -11.17 -12.61 -15.33 -14.55 -13.65 -13.29 -11.48 -12.13 -11.72
9.95 9.70 9.83 9.40 9.46 9.27 8.74 7.76 7.21 6.01 5.11 3.77 2.40 7.46 6.81 8.35 10.04 11.38 7.22 -4.60 -7.19 -9.72 -13.32 -16.93 -13.78 -14.73 -17.42 -18.73 -17.53 -18.88 -18.70 -17.35 -16.75 -19.39 -21.60 -19.43 -16.88 -21.93 -16.24 -14.51 -12.92 -11.98 -12.10
7.67 7.80 7.16 6.31 5.91 5.77 5.72 4.80 4.28 3.97 3.12 1.91 0.53 0.61 -1.47 -1.11 -2.28 -4.51 -7.19 -9.46 -11.44 -14.06 -16.19 -17.89 -19.36 -20.86 -23.37 -25.44 -24.90 -25.77 -24.06 -25.77 -23.04 -22.55 -22.40 -21.29 -18.51 -21.84 -16.14 -15.93 -14.85 -14.65 -14.14
5.71 5.18 5.20 3.62 3.65 3.71 3.71 3.26 3.28 2.42 1.28 -0.06 -0.77 -1.43 1.83 -3.26 -4.96 -9.91 -11.77 -14.61 -16.09 -17.33 -18.52 -20.24 -20.84 -22.86 -26.27 -27.09 -27.54 -27.42 -26.13 -22.33 -22.74 -22.18 -22.36 -21.82 -23.15 -19.45 -17.51 -15.16 -14.76 -15.03 -14.17
2.71 2.66 2.38 2.16 2.06 1.81 1.51 1.48 0.60 -0.42 -1.90 -3.52 -5.52 -6.29 5.77 -7.82 -11.25 -13.38 -17.70 -19.31 -18.90 -19.34 -19.57 -20.54 -21.77 -22.87 -21.08 -21.47 -21.96 -23.58 -22.82 -22.76 -22.63 -23.72 -22.11 -21.53 -19.93 -18.15 -16.85 -16.05 -16.02 -15.30 -14.53
1.87 0.42 0.19 0.44 0.51 -0.13 -1.39 -2.80 -4.09 -5.10 -6.72 -9.81 -11.82 -13.17 -17.16 -19.21 -21.71 -21.82 -19.09 -19.84 -22.74 -23.42 -24.95 -27.40 -22.98 -21.10 -21.07 -20.88 -20.90 -19.08 -19.13 -17.82 -17.00 -22.40 -22.40 -21.75 -18.52 -17.43 -16.96 -17.12 -16.44 -15.68 -14.78
1.14 -0.05 -1.92 -6.56 -8.02 -10.06 -10.69 -12.53 -14.67 -13.96 -18.22 -19.70 -22.69 -23.21 -20.35 -22.26 -23.01 -21.43 -22.37 -23.26 -24.73 -23.94 -24.74 -22.64 -21.69 -20.45 -18.30 -19.79 -21.24 -21.53 -19.39 -17.15 -16.75 -16.88 -20.93 -18.13 -17.20 -16.96 -16.14 -15.58 -15.50 -14.86 -14.12
-7.74 -8.98 -10.89 -12.25 -15.55 -15.14 -19.20 -21.57 -22.50 -24.92 -24.53 -22.85 -23.88 -26.15 -24.67 -23.96 -24.10 -24.34 -23.81 -23.55 -23.44 -22.44 -20.03 -19.75 -19.83 -19.58 -19.31 -19.30 -18.56 -19.90 -18.52 -11.14 -11.96 -12.64 -16.74 -17.49 -15.70 -15.50 -15.00 -15.06 -14.65 -13.30 -13.00
-14.89 -15.17 -16.24 -17.72 -20.18 -23.27 -22.54 -21.41 -22.15 -23.08 -22.25 -20.88 -21.44 -22.24 -22.07 -22.29 -21.69 -22.78 -23.26 -23.63 -21.22 -20.48 -19.74 -18.81 -17.73 -19.36 -19.54 -18.41 -18.88 -16.41 -14.75 -9.18 -11.45 -13.05 -15.60 -15.78 -15.80 -15.46 -14.99 -14.57 -13.20 -10.11 -5.83

GFSGL_sfc_wetblb_174.txt.gz
Wetbulb
31.07 30.44 30.17 29.88 29.71 29.70 29.84 30.01 30.47 30.96 31.08 30.92 31.14 31.27 31.46 31.69 32.58 32.86 32.61 31.82 30.95 30.40 30.11 29.67 29.23 29.22 27.94 27.90 28.13 27.26 26.76 27.46 26.10 24.91 27.08 26.70 26.52 24.45 24.33 25.77 25.86 25.59 24.37
31.09 29.72 29.38 28.66 28.12 27.93 27.89 28.29 29.19 29.48 30.05 29.89 30.02 30.16 30.30 30.87 31.51 31.50 30.92 29.78 29.05 28.22 28.26 28.06 27.13 28.12 25.95 26.27 26.28 25.83 25.55 25.91 25.98 24.08 24.63 25.17 24.99 23.14 22.39 22.68 23.84 24.62 23.10
29.99 28.88 28.13 27.41 26.71 26.45 26.58 27.09 28.01 28.52 28.62 29.04 29.50 29.14 29.34 29.82 29.89 29.98 29.70 28.99 27.86 28.11 27.38 25.74 25.64 25.97 24.94 24.51 24.11 24.06 24.84 25.78 25.10 25.05 22.88 23.93 23.15 22.56 21.28 21.96 21.66 21.67 23.10
29.58 28.06 27.49 26.88 26.29 25.78 25.95 26.44 26.96 27.46 27.46 27.88 27.99 28.30 28.63 28.85 29.31 29.16 28.62 27.67 27.42 26.97 26.86 25.96 25.32 25.03 24.70 23.89 24.36 23.92 24.63 24.31 23.85 22.83 22.52 21.03 21.32 21.60 19.84 17.60 17.34 19.28 18.80
28.83 27.43 27.72 27.09 25.75 25.24 25.49 25.96 26.26 26.71 27.21 27.37 27.11 26.97 27.04 27.87 28.72 27.69 28.01 26.54 25.47 24.03 24.63 24.88 25.41 25.89 26.82 25.93 23.54 22.36 22.86 22.40 21.91 21.11 19.14 19.08 18.15 17.71 16.01 17.18 16.51 16.69 17.34
28.99 28.73 27.89 26.13 25.67 25.33 25.20 25.35 25.41 25.97 26.48 26.57 26.24 26.06 25.65 27.83 31.06 30.59 27.96 25.77 24.84 23.31 22.36 22.91 22.99 23.84 26.43 27.11 26.95 26.84 24.29 21.11 18.80 18.99 17.57 16.48 15.93 16.18 16.20 15.74 14.54 12.44 11.88
29.05 28.74 26.53 26.08 25.12 24.78 24.85 24.44 24.53 24.44 25.17 24.93 24.96 25.14 25.50 27.15 31.55 30.56 28.40 25.51 24.64 23.26 22.14 21.89 22.39 23.13 22.36 23.13 24.75 25.36 23.68 23.65 21.10 17.79 15.86 14.71 14.87 15.17 15.57 13.70 12.30 11.57 11.71
27.91 27.79 26.36 25.86 25.05 24.24 23.76 23.67 24.00 24.05 23.85 23.70 23.94 24.74 25.35 27.40 30.83 29.90 27.04 24.17 23.00 22.99 22.08 21.35 21.68 21.95 22.07 20.98 20.18 19.90 18.57 18.06 17.17 17.40 16.40 16.38 16.45 16.60 14.72 12.68 10.57 8.18 7.72
26.83 26.63 25.63 25.17 24.21 22.95 22.62 22.26 22.52 22.89 22.92 23.24 24.47 24.19 24.70 26.00 29.99 28.84 25.42 23.10 22.10 21.12 21.35 20.96 21.16 21.46 23.52 22.23 19.61 18.76 17.10 15.33 17.41 18.05 18.65 18.59 17.70 17.82 15.53 8.50 -0.92 -3.15 -2.96
26.00 25.82 24.89 24.48 23.96 22.60 22.76 22.03 22.74 23.50 23.76 24.17 24.06 24.69 24.40 25.27 29.17 28.41 24.98 23.01 20.85 20.01 20.17 20.47 22.07 21.54 22.44 20.84 18.45 17.48 14.94 12.08 10.94 9.49 10.23 12.02 12.21 12.31 12.99 10.29 7.81 -6.33 -4.22
25.31 24.19 22.83 23.12 23.25 22.92 22.19 22.11 22.53 22.98 23.26 23.24 23.23 23.34 24.15 24.54 25.97 28.35 26.40 22.79 21.60 19.29 18.54 18.36 20.60 22.72 21.67 20.02 19.00 16.72 14.36 10.97 8.67 5.91 6.38 6.96 7.04 6.95 7.00 7.36 7.76 5.92 1.20
22.82 22.46 21.70 21.37 23.11 22.55 22.06 21.22 22.16 22.19 22.19 21.71 21.10 20.64 20.55 22.74 25.08 26.90 26.67 24.43 23.58 19.70 17.57 17.39 18.68 21.70 20.30 18.58 17.41 17.12 13.94 8.31 4.72 3.02 3.76 3.44 3.57 3.14 4.04 4.60 5.47 5.16 5.34
21.36 22.18 20.81 21.85 22.03 21.75 21.50 20.39 21.49 22.47 21.35 20.15 19.24 19.06 17.73 20.33 23.28 26.43 25.63 24.17 23.23 19.24 17.57 17.37 19.99 20.44 18.40 16.38 15.85 13.50 8.30 5.87 3.48 1.99 1.77 1.96 2.47 2.82 3.18 2.26 2.75 1.87 2.03
17.84 19.47 20.04 20.31 20.07 21.28 22.48 22.17 21.68 21.02 19.80 19.68 18.83 17.80 17.23 17.68 19.29 20.74 22.20 22.32 21.57 17.94 17.93 16.15 16.78 14.27 12.03 9.85 8.87 7.25 6.17 4.57 3.55 1.81 0.40 0.26 1.09 0.04 -1.39 -0.37 -2.93 -2.83 -7.57
15.18 15.44 16.92 19.12 19.50 19.39 20.22 20.76 21.18 21.96 21.88 19.26 18.99 17.67 15.89 15.69 17.26 20.18 19.07 17.56 14.40 13.47 9.09 8.35 7.42 6.47 5.34 4.55 3.78 3.29 2.70 1.95 0.49 -0.76 -2.96 -3.94 -3.11 -2.81 -3.68 -3.39 -4.54 -10.31 -14.22
14.66 14.98 15.51 16.56 16.90 18.18 18.17 19.27 24.13 23.27 25.13 25.13 24.10 20.05 18.93 20.83 22.85 22.76 21.82 20.96 19.55 17.67 4.58 3.49 4.19 4.66 4.28 3.51 2.21 0.93 0.39 -1.28 -1.90 -3.30 -5.57 -5.51 -6.07 -7.30 -7.50 -8.14 -7.76 -15.37 -16.51
14.35 15.74 16.98 17.36 17.19 16.25 17.03 16.87 16.02 21.85 25.68 25.38 24.65 23.65 22.04 21.79 23.69 23.36 22.85 22.12 21.54 14.93 3.37 3.50 3.61 2.99 2.26 1.75 0.78 -0.59 -2.20 -2.49 -3.64 -6.25 -6.84 -9.28 -9.61 -11.53 -14.92 -15.14 -12.82 -11.75 -17.30
12.69 15.37 14.89 15.31 15.35 15.67 15.67 16.13 16.80 17.29 16.52 18.05 23.02 22.02 22.75 23.09 23.57 23.55 24.44 22.56 11.37 5.00 1.19 0.94 0.83 0.66 -0.12 -1.12 -1.94 -3.14 -3.90 -5.16 -7.13 -8.42 -10.32 -16.97 -22.38 -21.06 -22.71 -22.02 -18.07 -24.08 -25.03
11.09 12.58 13.21 13.42 13.86 14.34 14.47 14.68 14.79 14.77 11.98 10.25 16.48 16.36 17.16 22.68 22.13 22.14 21.77 7.60 3.88 0.77 -0.87 -2.00 -1.94 -2.74 -3.54 -4.36 -5.16 -6.72 -8.72 -11.37 -13.82 -19.73 -24.74 -25.86 -26.97 -28.10 -29.34 -25.34 -22.40 -18.29 -20.07
5.45 10.16 10.47 10.42 10.44 10.46 10.99 10.07 9.30 9.05 8.41 9.17 9.50 6.40 5.85 9.86 10.87 3.74 2.72 2.17 1.33 0.49 -1.65 -3.39 -5.01 -6.01 -7.23 -8.73 -11.40 -15.25 -19.99 -25.01 -24.47 -24.36 -24.75 -26.45 -26.89 -27.31 -25.94 -29.30 -29.10 -26.86 -27.75
3.91 4.52 7.81 7.70 7.86 8.18 8.37 8.40 8.37 8.02 7.21 6.16 5.53 5.17 8.78 5.89 4.26 3.17 0.34 -0.85 -1.37 -2.56 -3.76 -5.15 -6.92 -9.58 -12.40 -15.95 -21.05 -23.76 -23.01 -20.49 -23.65 -26.47 -28.95 -27.59 -32.22 -33.15 -29.44 -24.53 -27.06 -28.27 -24.90
3.96 3.70 5.16 5.13 5.64 5.74 5.53 5.96 5.71 5.43 4.73 3.65 1.52 3.98 14.33 1.90 2.20 1.50 0.22 -1.42 -3.59 -5.07 -7.46 -9.98 -13.37 -15.59 -16.19 -18.16 -19.87 -22.30 -22.21 -22.03 -26.39 -26.16 -27.11 -28.66 -31.41 -33.20 -33.00 -30.00 -27.70 -26.77 -27.15
1.97 1.59 2.68 3.53 3.80 4.24 3.49 3.38 3.27 3.18 2.55 2.33 1.41 0.92 0.14 0.35 -0.11 -1.32 -2.95 -6.50 -11.08 -14.14 -16.62 -17.87 -17.67 -20.47 -22.73 -23.49 -23.03 -20.79 -20.82 -19.50 -19.43 -23.94 -25.89 -29.44 -30.29 -29.14 -31.21 -28.38 -29.44 -30.94 -29.20
1.23 1.44 0.68 0.36 0.61 1.77 1.88 1.17 0.95 0.97 0.30 -0.81 -2.19 -3.44 -4.40 -7.00 -8.88 -10.16 -12.83 -15.71 -18.02 -22.06 -23.47 -22.10 -21.26 -21.84 -24.08 -25.10 -25.51 -23.71 -21.45 -19.92 -26.21 -23.72 -24.50 -25.77 -25.43 -26.48 -30.43 -30.43 -26.78 -24.17 -21.57
0.42 0.49 0.34 0.29 -0.81 -1.13 -2.43 -4.05 -6.44 -10.56 -11.57 -11.56 -11.52 -11.44 -16.10 -17.53 -19.36 -21.26 -21.50 -23.09 -24.59 -25.87 -22.58 -23.64 -23.90 -22.12 -20.71 -20.95 -21.28 -23.83 -23.41 -12.90 -16.05 -22.35 -25.85 -27.67 -26.38 -28.62 -31.08 -27.78 -22.44 -22.69 -21.28
-3.13 -8.02 -10.72 -10.20 -9.88 -11.23 -11.26 -11.44 -13.56 -13.03 -12.53 -13.13 -14.97 -18.97 -19.51 -19.66 -19.73 -21.96 -22.92 -25.97 -25.21 -23.26 -23.06 -23.21 -22.67 -21.16 -21.72 -20.94 -20.64 -17.80 -17.14 -10.92 -16.67 -16.11 -22.87 -23.80 -24.21 -22.67 -22.98 -22.91 -23.45 -20.27 -19.06